• In Deutschland
  • Länderverzeichnis
  • Für 7 Tage
  • Wassertemperatur
  • Satellitenkarten
  • Wetterkarte
  • Widgets
  • user-avatar
    Anmelden

    Stündliche Wetter Mauritius

    Heute, 25 Mai, Freitag

    Zeit Temperatur Niederschläge Wind Luftdruck Luftfeuchtigkeit
    00:00 +22°C° 0,2 mm 9 m/S 727 mmHg 78%
    01:00 +22°C° 0,2 mm 9 m/S 726 mmHg 78%
    02:00 +22°C° 0,4 mm 9 m/S 726 mmHg 79%
    03:00 +22°C° 0,4 mm 10 m/S 726 mmHg 79%
    04:00 +22°C° 0 mm 9 m/S 726 mmHg 79%
    05:00 +22°C° 0,1 mm 10 m/S 726 mmHg 78%
    06:00 +22°C° 0,1 mm 10 m/S 727 mmHg 77%
    07:00 +22°C° 0,1 mm 10 m/S 727 mmHg 76%
    08:00 +23°C° 0 mm 10 m/S 727 mmHg 74%
    09:00 +23°C° 0 mm 10 m/S 727 mmHg 72%
    10:00 +24°C° 0 mm 9 m/S 727 mmHg 70%
    11:00 +24°C° 0 mm 9 m/S 727 mmHg 70%
    12:00 +24°C° 0 mm 9 m/S 727 mmHg 69%
    13:00 +26°C° 0 mm 9 m/S 726 mmHg 68%
    14:00 +24°C° 0 mm 9 m/S 726 mmHg 69%
    15:00 +24°C° 0 mm 9 m/S 726 mmHg 71%
    16:00 +24°C° 0 mm 9 m/S 726 mmHg 72%
    17:00 +23°C° 0 mm 9 m/S 726 mmHg 74%
    18:00 +23°C° 0 mm 9 m/S 726 mmHg 76%
    19:00 +23°C° 0 mm 9 m/S 726 mmHg 78%
    20:00 +23°C° 0 mm 9 m/S 726 mmHg 78%
    21:00 +23°C° 0 mm 9 m/S 727 mmHg 78%
    22:00 +23°C° 0 mm 9 m/S 727 mmHg 78%
    23:00 +23°C° 0 mm 9 m/S 727 mmHg 78%

    Morgen, 26 Mai, Samstag

    Zeit Temperatur Niederschläge Wind Luftdruck Luftfeuchtigkeit
    00:00 +23°C° 0 mm 8 m/S 727 mmHg 79%
    01:00 +22°C° 0 mm 8 m/S 726 mmHg 79%
    02:00 +22°C° 0 mm 8 m/S 726 mmHg 79%
    03:00 +22°C° 0 mm 8 m/S 726 mmHg 79%
    04:00 +22°C° 0 mm 7 m/S 726 mmHg 79%
    05:00 +22°C° 0 mm 7 m/S 726 mmHg 79%
    06:00 +22°C° 0 mm 7 m/S 726 mmHg 79%
    07:00 +22°C° 0 mm 7 m/S 726 mmHg 79%
    08:00 +23°C° 0 mm 8 m/S 727 mmHg 76%
    09:00 +24°C° 0 mm 8 m/S 727 mmHg 74%
    10:00 +24°C° 0 mm 8 m/S 727 mmHg 71%
    11:00 +26°C° 0 mm 7 m/S 727 mmHg 71%
    12:00 +26°C° 0 mm 7 m/S 726 mmHg 70%
    13:00 +26°C° 0 mm 7 m/S 726 mmHg 70%
    14:00 +26°C° 0,2 mm 7 m/S 726 mmHg 72%
    15:00 +24°C° 0,2 mm 7 m/S 726 mmHg 74%
    16:00 +24°C° 0,2 mm 7 m/S 726 mmHg 76%
    17:00 +24°C° 0,2 mm 6 m/S 726 mmHg 79%
    18:00 +23°C° 0,2 mm 6 m/S 726 mmHg 81%
    19:00 +23°C° 0,2 mm 6 m/S 726 mmHg 83%
    20:00 +23°C° 0,1 mm 6 m/S 726 mmHg 83%
    21:00 +23°C° 0,1 mm 6 m/S 726 mmHg 84%
    22:00 +23°C° 0,1 mm 6 m/S 727 mmHg 84%
    23:00 +22°C° 0,3 mm 6 m/S 726 mmHg 84%

    übermorgen, 27 Mai, Sonntag

    Zeit Temperatur Niederschläge Wind Luftdruck Luftfeuchtigkeit
    00:00 +22°C° 0,3 mm 6 m/S 726 mmHg 84%
    01:00 +22°C° 0,3 mm 6 m/S 726 mmHg 84%
    02:00 +22°C° 0,3 mm 5 m/S 726 mmHg 84%
    03:00 +22°C° 0,3 mm 5 m/S 726 mmHg 84%
    04:00 +22°C° 0,3 mm 5 m/S 726 mmHg 84%
    05:00 +22°C° 0,1 mm 5 m/S 726 mmHg 84%
    06:00 +22°C° 0,1 mm 5 m/S 726 mmHg 83%
    07:00 +22°C° 0,1 mm 5 m/S 726 mmHg 83%
    08:00 +23°C° 0 mm 5 m/S 726 mmHg 80%
    09:00 +25°C° 0 mm 5 m/S 727 mmHg 77%
    10:00 +25°C° 0 mm 5 m/S 727 mmHg 74%
    11:00 +26°C° 0 mm 5 m/S 727 mmHg 72%
    12:00 +26°C° 0 mm 5 m/S 726 mmHg 71%
    13:00 +26°C° 0 mm 5 m/S 726 mmHg 70%
    14:00 +26°C° 0,1 mm 5 m/S 726 mmHg 72%
    15:00 +26°C° 0,1 mm 4 m/S 725 mmHg 73%
    16:00 +25°C° 0,1 mm 4 m/S 725 mmHg 75%
    17:00 +25°C° 0,1 mm 4 m/S 726 mmHg 77%
    18:00 +23°C° 0,1 mm 4 m/S 726 mmHg 80%
    19:00 +23°C° 0,1 mm 4 m/S 726 mmHg 82%
    20:00 +23°C° 0 mm 4 m/S 726 mmHg 83%
    21:00 +23°C° 0 mm 4 m/S 726 mmHg 83%
    22:00 +23°C° 0 mm 4 m/S 727 mmHg 84%
    23:00 +22°C° 0 mm 4 m/S 727 mmHg 84%

    28 Mai, Montag

    Zeit Temperatur Niederschläge Wind Luftdruck Luftfeuchtigkeit
    00:00 +22°C° 0 mm 4 m/S 726 mmHg 84%
    01:00 +22°C° 0 mm 4 m/S 726 mmHg 84%
    02:00 +22°C° 0 mm 4 m/S 726 mmHg 84%
    03:00 +22°C° 0 mm 4 m/S 726 mmHg 84%
    04:00 +22°C° 0 mm 4 m/S 725 mmHg 84%
    05:00 +22°C° 0 mm 4 m/S 726 mmHg 84%
    06:00 +22°C° 0 mm 4 m/S 726 mmHg 83%
    07:00 +22°C° 0 mm 4 m/S 726 mmHg 83%
    08:00 +22°C° 0 mm 4 m/S 726 mmHg 79%
    09:00 +23°C° 0 mm 4 m/S 727 mmHg 76%
    10:00 +25°C° 0 mm 4 m/S 727 mmHg 73%
    11:00 +25°C° 0 mm 4 m/S 727 mmHg 71%
    12:00 +25°C° 0 mm 4 m/S 726 mmHg 69%
    13:00 +26°C° 0 mm 4 m/S 726 mmHg 67%
    14:00 +26°C° 0 mm 4 m/S 725 mmHg 69%
    15:00 +25°C° 0 mm 4 m/S 725 mmHg 71%
    16:00 +25°C° 0 mm 4 m/S 725 mmHg 73%
    17:00 +23°C° 0 mm 4 m/S 725 mmHg 75%
    18:00 +23°C° 0 mm 4 m/S 725 mmHg 77%
    19:00 +23°C° 0 mm 4 m/S 725 mmHg 79%
    20:00 +23°C° 0 mm 4 m/S 726 mmHg 79%
    21:00 +23°C° 0 mm 4 m/S 726 mmHg 79%
    22:00 +22°C° 0 mm 4 m/S 726 mmHg 79%
    23:00 +22°C° 0 mm 4 m/S 726 mmHg 80%

    29 Mai, Dienstag

    Zeit Temperatur Niederschläge Wind Luftdruck Luftfeuchtigkeit
    00:00 +22°C° 0 mm 4 m/S 726 mmHg 80%
    01:00 +22°C° 0 mm 4 m/S 726 mmHg 81%
    02:00 +22°C° 0 mm 4 m/S 725 mmHg 81%
    03:00 +22°C° 0 mm 4 m/S 725 mmHg 81%
    04:00 +22°C° 0 mm 4 m/S 725 mmHg 81%
    05:00 +22°C° 0 mm 4 m/S 725 mmHg 81%
    06:00 +22°C° 0 mm 4 m/S 725 mmHg 80%
    07:00 +22°C° 0 mm 5 m/S 725 mmHg 80%
    08:00 +22°C° 0 mm 4 m/S 726 mmHg 77%
    09:00 +23°C° 0 mm 4 m/S 726 mmHg 74%
    10:00 +25°C° 0 mm 4 m/S 726 mmHg 71%
    11:00 +25°C° 0 mm 4 m/S 726 mmHg 70%
    12:00 +25°C° 0 mm 4 m/S 725 mmHg 69%
    13:00 +25°C° 0 mm 4 m/S 725 mmHg 68%
    14:00 +25°C° 0 mm 4 m/S 725 mmHg 69%
    15:00 +25°C° 0 mm 4 m/S 725 mmHg 69%
    16:00 +25°C° 0 mm 4 m/S 724 mmHg 70%
    17:00 +23°C° 0 mm 4 m/S 725 mmHg 71%
    18:00 +23°C° 0 mm 4 m/S 725 mmHg 73%
    19:00 +22°C° 0 mm 4 m/S 725 mmHg 75%
    20:00 +22°C° 0 mm 4 m/S 725 mmHg 75%
    21:00 +22°C° 0 mm 4 m/S 726 mmHg 75%
    22:00 +22°C° 0 mm 4 m/S 726 mmHg 76%
    23:00 +22°C° 0 mm 4 m/S 726 mmHg 76%

    30 Mai, Mittwoch

    Zeit Temperatur Niederschläge Wind Luftdruck Luftfeuchtigkeit
    00:00 +22°C° 0 mm 4 m/S 725 mmHg 77%
    01:00 +22°C° 0 mm 4 m/S 725 mmHg 78%
    02:00 +22°C° 0 mm 4 m/S 725 mmHg 78%
    03:00 +22°C° 0 mm 4 m/S 725 mmHg 79%
    04:00 +22°C° 0 mm 4 m/S 725 mmHg 79%
    05:00 +22°C° 0 mm 4 m/S 725 mmHg 80%
    06:00 +21°C° 0 mm 4 m/S 725 mmHg 80%
    07:00 +21°C° 0 mm 4 m/S 726 mmHg 81%
    08:00 +22°C° 0 mm 4 m/S 726 mmHg 77%
    09:00 +23°C° 0 mm 4 m/S 726 mmHg 74%
    10:00 +25°C° 0 mm 4 m/S 727 mmHg 71%
    11:00 +25°C° 0 mm 4 m/S 726 mmHg 69%
    12:00 +25°C° 0 mm 4 m/S 726 mmHg 67%
    13:00 +25°C° 0 mm 4 m/S 725 mmHg 66%
    14:00 +25°C° 0 mm 4 m/S 725 mmHg 67%
    15:00 +25°C° 0 mm 4 m/S 725 mmHg 67%
    16:00 +25°C° 0 mm 4 m/S 725 mmHg 68%
    17:00 +23°C° 0 mm 4 m/S 725 mmHg 70%
    18:00 +23°C° 0 mm 4 m/S 726 mmHg 72%
    19:00 +22°C° 0 mm 5 m/S 726 mmHg 74%
    20:00 +22°C° 0 mm 5 m/S 726 mmHg 76%
    21:00 +22°C° 0 mm 5 m/S 726 mmHg 77%
    22:00 +22°C° 0 mm 5 m/S 726 mmHg 78%
    23:00 +22°C° 0 mm 5 m/S 726 mmHg 79%
    Mehr zeigen